GSAT0207 (GALILEO 15)

Last updated on Jan. 21, 2021, 6:16 a.m. UTC

1 41859U 16069A   21019.89191763  .00000029  00000-0  00000-0 0  9997
2 41859  54.6901 155.8327 0002430 302.5734  57.3637  1.70473555 25902
UTC
Height (km)
Latitude
Longitude
Inclination
Orbital Period
UTC large
Height (km)
Speed (km/s)
/
Latitude / Longitude
Inclination (degrees)
Orbital Period (minutes)
Azimuth
Elevation
Range (km)
Doppler Factor
iOS Compass Heading
iOS Angle

Next 30 passes for location: Hong Kong

Rise time Rise Azimuth (degrees) Set time Set Azimuth (degrees) Duration Max altitude (degrees)

No matching passes for this satellites